Torna al catalogo

ONEWEB-0419

AttivoComunicazioniPO
NORAD 50494·PAYLOAD·🇬🇧 United Kingdom

Lanciato Dec 27, 2021 da Baikonur Cosmodrome

Loading…

Prossimi Passaggi (prossime 24 ore)

TLE

AggiornatoSource: CelesTrak SupGP

Epoca: Sep 14, 2026, 11:11 UTC

1 50494C 21132AB  26257.46611526  .00000670  00000+0  17418-2 0  2576
2 50494  87.9175 317.7282 0001764 104.8009 334.0635 13.17086386    19

Traccia ONEWEB-0419 in tempo reale con AllMySat

Download on the App Store